Regional Weather Roundup
Issued by NWS

Home | Current Version | Previous Version | Graphics & Text | Print | Product List | Glossary On
Versions: 1 2 3 4 5 6 7 8 9 10 11 12 13 14 15 16 17 18 19 20 21 22 23 24 25 26 27 28 29 30 31 32 33 34 35 36 37 38 39 40 41 42 43 44 45 46 47 48 49 50
000
ASUS43 KLSX 220107
RWRMO

WEATHER SUMMARY FOR MISSOURI
NATIONAL WEATHER SERVICE SPRINGFIELD MO
800 PM CDT SAT OCT 21 2017

NOTE: "FAIR" INDICATES FEW OR NO CLOUDS BELOW 12,000 FEET WITH NO
       SIGNIFICANT WEATHER AND/OR OBSTRUCTIONS TO VISIBILITY.
       CURRENT SKY AND/OR WEATHER CONDITIONS ARE NOT AVAILABLE FOR
       CHILLICOTHE AND FARMINGTON.

MOZ001>031-035>038-043-044-053-054-220200-
...NORTHERN AND WESTERN MISSOURI...

CITY           SKY/WX    TMP DP  RH WIND       PRES   REMARKS
KANSAS CTY INT TSTM      60  60 100 W10       29.85S VSB 1
KANSAS C DTWN  CLOUDY    66  60  81 NW8       29.83R
LEE`S SUMMIT   CLOUDY    74  64  71 S9        29.82F
ST JOSEPH      LGT RAIN  60  58  92 NW7G16    29.87R
CHILLICOTHE      N/A     74  64  71 S8        29.83S
KIRKSVILLE     MOCLDY    70  64  81 S12       29.87S

$$
MOZ066>068-077>081-088>096-101>105-220200-
...SOUTHWEST MISSOURI...

CITY           SKY/WX    TMP DP  RH WIND       PRES   REMARKS
SPRINGFIELD    CLOUDY    72  65  78 S16       29.91S
JOPLIN         CLOUDY    75  63  66 S15       29.84F
BRANSON        MOCLDY    68  64  88 SE9       29.95S

$$
MOZ032>034-039>042-045>050-055>058-069>072-220200-
...CENTRAL MISSOURI...

CITY           SKY/WX    TMP DP  RH WIND       PRES   REMARKS
COLUMBIA       CLOUDY    74  63  68 S16       29.92R
JEFFERSON CITY CLOUDY    75  62  64 S13G21    29.91R
ROLLA          PTCLDY    70  64  81 S9        29.95F
SEDALIA        CLOUDY    74  65  73 SE14      29.88S
WHITEMAN AFB   MOCLDY    74  64  72 S9        29.82R
WARRENSBURG    CLOUDY    72  61  68 SE9       29.84F
OSAGE BEACH    PTCLDY    72  64  76 S12       29.93R

$$
MOZ051-052-059>065-220200-
...EAST CENTRAL MISSOURI...

CITY           SKY/WX    TMP DP  RH WIND       PRES   REMARKS
ST LOUIS INTL  MOCLDY    76  60  57 SE14      29.97F
SPIRIT OF STL  MOCLDY    76  62  62 SE6       29.94F
ST CHARLES     PTCLDY    76  60  57 S16       29.95F

$$
MOZ072>076-082>087-097>100-106>115-220200-
...SOUTH CENTRAL AND SOUTHEAST MISSOURI...

CITY           SKY/WX    TMP DP  RH WIND       PRES   REMARKS
CAPE GIRARDEAU CLEAR     72  59  63 SE10      30.05R
FARMINGTON     CLOUDY    74  61  63 SE14      30.02S
POPLAR BLUFF   CLOUDY    74  60  61 SE12      30.02S
WEST PLAINS    MOCLDY    72  64  76 S9        30.00F

$$



USA.gov is the U.S. government's official web portal to all federal, state and local government web resources and services.